Theta_e
305 309 311 313 313 312 312 311 311 311 311 311 311 311 310 310 310 310 310 310 311 311 311 312 312 312 312 312 311 311 312 313 314 315 317 317 321 323 326 331 333 334 337
306 309 310 312 311 311 310 310 310 310 310 310 309 309 309 308 308 308 308 309 309 309 309 310 310 310 310 310 310 310 310 310 311 312 313 315 315 318 323 326 329 331 334
307 308 311 310 310 309 309 309 308 308 308 308 307 307 307 306 306 306 306 307 307 307 307 307 308 308 307 307 308 308 308 309 309 309 310 311 312 314 318 321 325 327 331
306 308 309 308 308 308 308 307 307 306 306 306 306 305 305 304 304 304 304 305 305 305 305 306 305 305 306 305 306 306 306 307 307 307 307 307 309 311 313 317 321 324 328
305 307 307 306 306 306 306 305 305 305 305 304 303 303 302 302 302 301 302 302 303 303 303 303 303 303 303 303 304 304 304 304 305 304 304 305 306 309 311 313 317 322 324
304 305 304 305 305 304 304 303 303 303 303 303 302 301 300 300 299 299 299 300 300 300 300 300 300 300 301 301 301 302 302 302 303 301 302 303 304 307 309 311 313 319 321
303 303 302 302 302 302 301 301 301 301 300 300 299 298 298 297 298 297 297 298 298 298 298 298 298 299 299 299 299 299 300 301 301 301 301 302 303 305 308 309 313 315 320
300 301 300 296 297 298 298 298 298 298 298 297 297 295 294 295 295 295 295 295 296 296 297 297 297 297 297 298 297 298 298 299 299 299 300 302 303 304 306 308 310 313 317
299 299 299 299 297 295 292 291 292 293 292 293 291 290 291 293 293 293 293 293 295 295 295 295 295 295 295 296 296 296 296 297 298 299 300 300 301 303 304 307 309 311 314
298 298 298 298 299 297 296 291 290 290 290 291 291 289 291 293 292 292 292 292 293 293 293 294 294 294 294 293 294 295 295 296 297 297 297 299 300 302 305 307 309 311 313
298 297 297 298 298 297 295 294 295 293 293 293 292 291 292 292 292 291 291 291 291 291 292 292 292 292 291 291 292 293 294 295 296 295 296 297 299 301 304 306 308 310 312
298 297 297 297 297 296 294 295 295 294 294 293 292 291 292 292 291 291 290 290 290 290 290 291 291 291 290 290 291 292 293 295 295 295 295 295 298 301 304 305 306 308 311
299 298 296 296 296 296 296 295 294 294 293 292 292 290 291 291 290 290 290 289 289 289 289 289 289 290 290 290 290 291 293 294 295 294 294 296 299 301 303 304 306 309 310
298 297 296 295 295 295 295 294 294 293 292 292 291 290 290 290 289 289 289 289 288 288 288 288 289 289 289 289 290 291 292 293 294 293 293 294 297 300 303 305 306 309 311
298 297 296 295 295 294 294 294 293 292 291 291 290 289 289 289 288 288 288 288 288 287 288 288 288 288 289 289 289 290 291 293 294 293 293 293 296 300 301 302 305 307 310
297 296 296 295 294 294 294 293 292 291 290 290 289 289 288 288 287 287 287 287 287 287 287 287 287 288 288 289 289 290 290 292 294 294 293 293 294 297 298 300 302 305 308
297 296 295 295 294 293 293 292 291 290 290 289 289 288 287 287 286 286 286 287 286 286 287 287 287 287 288 288 289 289 289 292 293 295 293 294 293 293 295 297 300 303 305
297 296 295 294 293 293 293 292 291 290 289 289 288 288 287 286 285 285 286 286 285 286 286 287 286 287 287 288 288 288 290 291 294 295 293 294 293 293 292 293 297 299 301
297 296 295 294 293 293 292 292 291 289 289 288 288 287 285 285 284 284 285 284 285 285 286 286 286 286 286 288 287 288 289 292 293 292 293 293 291 292 291 292 294 295 297
297 296 295 294 294 293 292 292 291 290 289 288 288 286 285 284 283 283 283 283 284 285 285 285 285 285 286 287 287 288 289 292 293 290 292 292 291 291 291 292 292 292 295
296 296 295 294 293 292 292 292 292 292 291 289 287 285 284 283 282 282 282 283 283 284 285 285 285 284 285 285 286 287 289 289 289 289 291 291 290 290 291 292 291 291 293
296 296 295 294 293 292 292 291 291 290 290 288 286 285 283 282 282 281 281 282 283 284 285 285 284 284 283 284 286 287 289 289 288 290 290 290 290 290 291 291 291 290 292
295 296 295 294 293 292 291 289 288 288 288 288 287 285 283 282 281 281 281 282 283 283 284 284 284 283 283 284 284 286 287 288 289 289 289 289 289 290 291 291 290 290 290
295 295 295 294 293 291 289 289 289 290 290 287 285 284 283 282 281 280 281 281 282 283 283 283 283 282 282 283 283 284 285 286 288 289 288 289 289 290 291 291 289 290 289
295 295 294 294 292 290 289 289 289 289 287 285 284 284 283 282 281 280 280 281 282 282 283 283 282 281 283 283 283 284 285 286 286 287 288 289 289 290 292 291 289 289 288
295 295 294 293 291 289 288 288 288 288 286 285 284 283 282 282 281 280 280 281 282 282 282 282 283 283 284 284 284 285 285 285 286 286 287 289 289 290 292 291 289 289 288
Wind_Speed
3 3 4 8 8 9 11 12 13 14 14 16 17 18 20 21 22 22 23 25 26 27 27 28 28 29 29 29 29 29 29 29 29 30 32 33 33 33 31 30 29 26 25
4 3 6 7 8 9 10 11 12 13 15 16 18 20 21 22 23 24 25 26 27 27 27 28 28 28 29 30 30 30 31 30 30 30 31 33 34 30 29 31 30 28 27
5 4 4 6 7 9 10 11 12 13 14 16 19 20 20 21 23 24 24 25 26 27 28 29 29 28 29 29 30 32 31 32 31 32 32 33 32 30 30 29 32 31 30
5 5 4 6 7 9 10 11 12 14 16 18 19 20 21 22 23 24 24 25 26 26 27 28 29 29 28 29 29 30 31 33 33 32 33 30 31 31 31 31 32 34 32
6 5 4 6 6 8 9 11 12 14 16 18 20 21 22 22 23 24 25 27 28 28 29 29 30 29 29 30 29 29 30 31 33 33 31 30 30 31 31 33 33 32 33
6 5 5 6 6 8 9 10 11 12 15 16 17 18 19 21 21 22 22 23 24 25 25 28 29 30 30 31 32 32 30 29 30 30 30 30 30 31 33 34 34 33 34
7 5 4 5 6 8 8 9 10 12 14 15 16 17 18 18 19 21 21 22 23 24 25 26 26 27 28 29 30 31 30 29 28 29 31 30 31 31 32 36 35 36 34
7 5 3 3 4 5 6 7 9 11 13 14 15 16 15 16 18 19 21 23 25 25 26 26 28 29 29 30 30 30 32 31 30 29 28 29 29 32 34 35 35 36 37
6 5 3 2 1 5 6 7 9 10 12 13 15 17 18 17 19 20 21 21 24 26 28 28 30 30 31 31 30 29 30 34 34 26 28 30 30 31 35 36 37 37 38
7 5 4 3 3 1 2 7 9 11 12 14 16 19 19 16 19 20 21 24 25 26 28 27 29 30 32 33 30 30 31 31 23 30 30 30 31 34 36 38 38 38 37
8 7 6 5 3 2 2 5 9 11 12 13 15 18 16 16 18 20 21 24 25 25 27 27 28 29 29 28 29 29 31 25 27 30 30 31 34 37 39 39 39 40 39
12 10 9 6 4 2 1 4 5 7 8 10 13 16 15 16 17 19 20 22 23 24 25 26 27 27 26 28 29 30 29 30 29 29 32 32 34 38 39 37 39 40 40
14 12 10 6 5 2 1 2 4 5 7 8 12 17 16 16 17 19 20 22 23 24 25 26 27 27 30 29 29 30 31 31 29 29 32 33 35 37 37 37 38 40 40
17 13 9 8 5 3 1 1 2 4 5 7 9 14 15 16 18 19 20 21 23 25 26 27 28 30 31 30 30 31 33 33 31 31 33 31 34 34 36 37 35 33 33
17 13 11 9 6 4 2 1 1 3 4 6 8 11 14 15 17 19 19 20 21 24 25 27 28 30 32 33 33 33 36 34 28 35 32 33 33 33 33 35 34 32 30
16 15 12 10 8 6 4 2 1 2 4 6 7 10 13 14 16 18 18 19 21 24 24 26 28 29 30 31 33 33 35 33 29 32 32 33 32 32 35 34 34 34 31
18 16 16 13 10 8 6 4 2 1 2 4 6 9 13 14 16 18 18 19 21 23 23 25 27 27 28 30 31 35 34 31 30 22 31 28 35 35 34 34 32 31 31
21 21 17 13 11 8 6 4 3 2 1 3 6 8 12 14 15 17 17 18 22 22 22 24 28 30 29 29 33 39 34 33 25 24 31 29 32 34 39 36 34 34 32
21 18 16 13 11 9 7 5 4 3 2 3 5 8 12 13 15 16 15 17 20 20 21 24 26 28 30 29 33 35 38 29 25 32 28 29 38 38 39 39 37 36 32
22 20 18 15 13 10 7 6 5 4 3 3 5 8 11 13 14 14 15 16 18 19 21 23 25 28 25 28 34 32 33 24 17 40 28 30 37 40 41 39 40 38 35
23 22 21 18 15 12 9 7 6 6 4 3 4 7 11 12 13 14 14 15 17 18 20 22 23 27 27 30 28 32 27 28 30 40 28 34 38 39 43 38 39 38 39
27 25 22 19 16 14 10 7 4 4 3 3 3 6 9 11 12 13 14 15 17 19 19 22 23 25 25 29 23 24 10 18 33 29 29 34 38 39 38 45 40 42 42
29 27 24 20 16 13 10 7 4 3 3 3 3 5 8 11 11 12 14 15 16 16 19 20 22 23 22 25 27 13 8 9 17 33 37 34 41 38 40 43 45 44 53
30 27 24 21 18 14 11 8 7 5 4 1 2 5 6 8 10 12 13 14 15 15 17 19 20 20 22 23 25 22 20 26 12 13 29 36 41 39 37 39 44 49 56
29 28 26 22 19 15 13 9 7 5 3 2 1 4 6 7 9 12 13 13 14 15 17 18 19 20 20 20 23 25 25 22 23 9 15 16 42 42 34 31 44 53 54
28 26 25 24 21 17 14 11 9 7 5 3 1 3 5 6 7 11 12 13 14 16 18 18 17 18 19 19 22 23 24 23 21 16 13 15 19 33 33 34 48 54 55
Wind_Direction
89 46 52 19 27 26 24 23 23 22 22 24 25 26 24 21 18 14 11 9 6 3 360 355 352 349 345 342 339 336 332 326 321 320 314 311 309 309 306 299 297 290 289
114 70 43 41 32 28 26 23 22 23 24 25 26 25 21 19 15 12 10 7 4 0 357 353 350 347 343 340 336 333 329 325 321 316 312 311 304 302 300 301 300 295 286
108 85 57 46 34 30 27 24 23 25 25 27 28 26 22 17 14 12 9 6 1 357 355 351 347 343 340 338 334 331 327 323 320 317 311 307 304 298 295 295 297 296 291
117 88 72 56 40 33 27 25 23 23 24 25 25 22 19 16 13 9 6 4 359 355 352 349 344 340 336 334 331 327 325 323 319 316 312 305 300 296 293 290 293 293 292
118 92 82 63 46 37 30 27 23 23 24 23 21 18 16 13 10 6 2 0 357 354 350 347 342 338 336 332 328 326 324 320 318 315 309 303 297 293 292 292 289 290 290
123 99 84 68 51 40 35 28 25 23 25 23 20 18 14 11 7 3 2 359 354 350 348 344 341 336 332 330 328 325 322 319 314 311 306 301 296 291 290 291 287 288 288
136 120 96 77 53 43 35 29 23 23 24 22 18 16 12 7 4 2 357 356 351 348 348 345 338 333 331 328 325 322 321 318 316 310 305 299 294 291 288 291 288 282 283
145 150 131 37 56 48 36 28 23 23 22 19 17 13 7 3 1 355 355 354 350 348 347 344 339 337 333 330 325 322 323 321 317 309 303 300 294 290 291 288 286 282 282
155 157 148 148 349 359 11 21 21 19 19 15 14 9 4 359 354 350 349 349 348 348 347 345 340 335 334 328 326 324 323 320 317 310 305 301 296 294 292 288 286 281 278
170 165 162 179 205 261 344 359 9 11 13 10 9 4 2 355 348 346 345 347 345 346 346 343 336 336 337 331 325 327 323 319 316 309 304 298 299 296 291 286 283 283 278
181 178 185 195 199 230 337 335 6 355 5 7 4 358 357 351 345 346 344 343 343 342 343 341 336 336 332 325 328 323 323 318 313 308 304 300 299 295 293 284 283 283 282
185 189 196 192 196 207 287 339 348 357 359 358 358 359 354 348 344 344 342 343 341 339 342 336 337 335 331 329 326 325 321 318 314 310 307 304 297 296 294 286 283 283 280
190 195 192 189 197 196 252 345 352 350 353 351 356 356 355 350 345 344 343 342 340 338 339 338 337 336 333 329 325 323 320 320 317 312 308 306 301 298 296 289 285 283 275
193 194 186 191 194 204 209 328 347 351 355 355 352 354 358 349 345 344 342 340 338 337 338 338 335 332 328 328 327 325 322 321 317 315 313 313 312 306 307 298 294 289 277
194 187 189 189 196 201 207 243 317 347 349 353 353 354 357 350 343 341 338 338 338 337 337 336 335 331 330 329 329 326 324 320 317 323 320 316 316 310 317 312 304 299 293
193 190 188 190 194 200 205 215 298 344 348 349 350 351 354 349 342 339 336 337 339 337 337 336 334 332 330 328 325 324 323 317 319 316 326 325 327 317 322 313 306 300 300
195 190 193 190 192 195 199 205 208 289 351 343 345 348 350 347 342 340 336 337 338 336 337 336 335 332 330 329 323 325 323 320 315 309 329 313 328 327 319 318 311 303 299
193 194 193 193 194 197 201 206 216 254 315 343 347 347 344 345 345 342 337 338 338 337 338 340 338 334 334 333 330 327 327 320 314 322 330 327 326 325 323 322 317 312 304
196 194 195 197 197 197 202 207 220 248 302 346 348 347 345 346 348 344 338 339 340 337 341 342 339 338 333 335 333 330 328 323 335 342 331 332 333 329 324 328 322 314 306
195 195 196 197 197 197 198 208 223 246 273 322 347 345 349 347 348 346 342 342 342 340 344 344 341 338 337 339 331 333 328 338 342 341 331 334 335 331 333 330 320 314 309
195 196 197 196 196 194 198 203 224 244 252 285 331 346 349 349 348 351 346 345 348 344 344 345 343 341 339 344 339 339 336 344 355 334 334 337 335 333 337 327 320 317 316
196 198 198 200 198 198 201 198 201 220 238 256 331 345 345 350 352 353 349 352 351 346 347 348 348 345 338 349 347 332 337 337 342 331 339 339 335 337 335 336 329 327 326
199 198 199 200 198 198 194 184 185 211 235 252 313 337 339 349 354 355 356 357 354 349 347 347 348 348 338 345 352 4 339 334 325 335 338 340 340 338 337 344 339 336 340
200 196 196 197 195 194 192 191 203 234 239 228 318 330 338 348 355 0 1 2 354 350 350 347 346 345 343 341 343 346 334 324 335 325 338 341 341 342 336 343 344 350 354
198 193 192 192 191 191 191 189 187 195 185 191 331 334 341 346 358 3 5 3 355 353 351 346 346 344 341 342 338 338 339 334 338 323 324 335 340 341 340 343 355 1 357
196 192 189 189 189 188 186 185 188 189 185 187 10 351 345 350 357 360 5 5 356 354 352 346 343 341 339 343 337 341 343 337 339 334 331 332 330 337 339 353 3 10 3